User: anonymous
Location: Toronto
(43.6672°N, 79.4170°W)
Time: 13:52:57
(UTC-04:00)
Language:

ISS - Orbit

View from above orbital plane
View from above orbital plane
View from above satellite
View from above satellite

Ground track
Ground track

The orbit data is extracted from the following two-line orbital elements,

1 25544U 98067A   14273.50403866  .00012237  00000-0  21631-3 0  1790
2 25544 051.6467 297.5710 0002045 126.1182 027.2142 15.50748592907666
Epoch (UTC): 30 September 2014 12:05:48
Eccentricity: 0.0002045
inclination: 51.6467°
perigee height: 413 km
apogee height: 416 km
right ascension of ascending node: 297.5710°
argument of perigee: 126.1182°
revolutions per day: 15.50748592
mean anomaly at epoch: 27.2142°
orbit number at epoch: 90766

The dashed part of the orbit path shows where the satellite is in the earth's shadow,  

DLR